GW5170 Weather Reports


Display with metric or nautical units.
time (UTC)temp
F
wind
direction
speed
MPH
gust
MPH
rain 1hr
in
rain 24hr
in
rain mn
in
humidity
%
barometer
mb
20260903011827 85 259 2.0 3.0 0.00 0.00 0.00 79 1012.7
20260903011327 86 170 2.0 3.0 0.00 0.00 0.00 79 1012.4
20260903010822 86 335 2.0 2.0 0.00 0.00 0.00 76 1012.7
20260903010318 86 301 2.0 2.0 0.00 0.00 0.00 77 1012.8
20260903005815 87 204 3.0 3.0 0.00 0.00 0.00 76 1012.7
20260903005310 87 14 2.0 2.0 0.00 0.00 0.00 75 1012.6
20260903004801 88 340 0.0 1.0 0.00 0.00 0.00 74 1012.7
20260903004256 88 310 2.0 2.0 0.00 0.00 0.00 72 1012.8
20260903003752 88 322 2.0 2.0 0.00 0.00 0.00 71 1013.1
20260903003252 88 302 2.0 2.0 0.00 0.00 0.00 71 1012.7
20260903002746 88 289 2.0 2.0 0.00 0.00 0.00 71 1012.9
20260903002241 89 278 3.0 3.0 0.00 0.00 0.00 70 1013.1
20260903001736 89 304 2.0 2.0 0.00 0.00 0.00 70 1012.9
20260903001231 89 288 2.0 2.0 0.00 0.00 0.00 69 1013.0
20260903000726 89 293 4.0 4.0 0.00 0.00 0.00 70 1012.7
20260903000226 89 323 2.0 2.0 0.00 0.00 0.00 69 1012.9
20260902235724 89 291 4.0 6.0 0.00 0.00 0.00 69 1013.0
20260902235220 89 265 4.0 6.0 0.00 0.00 0.00 70 1012.9
20260902234719 89 277 4.0 6.0 0.00 0.00 0.00 69 1013.1
20260902234218 90 285 3.0 4.0 0.00 0.00 0.00 68 1013.1
20260902233717 90 300 2.0 2.0 0.00 0.00 0.00 68 1013.0
20260902233212 90 248 5.0 7.0 0.00 0.00 0.00 67 1013.1
20260902232711 90 337 2.0 3.0 0.00 0.00 0.00 66 1013.0
20260902232210 90 232 5.0 7.0 0.00 0.00 0.00 65 1013.2
20260902231705 91 262 6.0 7.0 0.00 0.00 0.00 65 1013.0
20260902231159 91 233 4.0 4.0 0.00 0.00 0.00 65 1013.0
20260902230655 91 275 3.0 3.0 0.00 0.00 0.00 65 1013.1
20260902230153 92 230 5.0 7.0 0.00 0.00 0.00 64 1013.1
20260902225648 92 337 3.0 3.0 0.00 0.00 0.00 63 1013.0
20260902225143 93 229 4.0 4.0 0.00 0.00 0.00 62 1013.1
20260902224642 94 295 3.0 4.0 0.00 0.00 0.00 59 1012.9
20260902224138 93 266 3.0 3.0 0.00 0.00 0.00 59 1012.8
20260902223634 93 215 3.0 3.0 0.00 0.00 0.00 59 1012.9
20260902223132 93 260 4.0 4.0 0.00 0.00 0.00 58 1012.9
20260902222631 94 327 1.0 1.0 0.00 0.00 0.00 56 1012.9
20260902222130 94 260 3.0 4.0 0.00 0.00 0.00 55 1013.0
20260902221624 95 335 2.0 3.0 0.00 0.00 0.00 54 1013.1
20260902221120 97 315 3.0 3.0 0.00 0.00 0.00 51 1013.1
20260902220616 96 304 1.0 2.0 0.00 0.00 0.00 51 1013.1
20260902220110 95 256 2.0 3.0 0.00 0.00 0.00 53 1013.2
20260902215606 96 260 4.0 4.0 0.00 0.00 0.00 52 1013.2
20260902215101 95 325 2.0 2.0 0.00 0.00 0.00 53 1013.2
20260902214555 96 340 4.0 4.0 0.00 0.00 0.00 52 1013.5
20260902214054 94 338 2.0 3.0 0.00 0.00 0.00 53 1013.4
20260902213550 94 295 2.0 3.0 0.00 0.00 0.00 54 1013.4
20260902213049 96 309 4.0 4.0 0.00 0.00 0.00 53 1013.5
20260902212545 94 285 5.0 6.0 0.00 0.00 0.00 54 1013.5
20260902212041 94 323 4.0 4.0 0.00 0.00 0.00 55 1013.5
20260902211537 95 298 3.0 3.0 0.00 0.00 0.00 54 1013.9
20260902211032 95 336 6.0 7.0 0.00 0.00 0.00 55 1013.6
20260902210531 95 309 2.0 2.0 0.00 0.00 0.00 55 1013.7
20260902210026 95 333 2.0 3.0 0.00 0.00 0.00 54 1013.7
20260902205520 94 340 2.0 3.0 0.00 0.00 0.00 54 1014.0
20260902205016 95 318 4.0 4.0 0.00 0.00 0.00 53 1013.7
20260902204515 95 257 3.0 3.0 0.00 0.00 0.00 52 1013.7
20260902204011 96 274 2.0 3.0 0.00 0.00 0.00 52 1013.6
20260902203506 96 45 2.0 3.0 0.00 0.00 0.00 51 1013.5
20260902203005 96 254 6.0 7.0 0.00 0.00 0.00 52 1013.6
20260902202501 96 326 7.0 7.0 0.00 0.00 0.00 50 1013.7
20260902201957 96 341 6.0 8.0 0.00 0.00 0.00 50 1013.7
20260902201452 96 272 4.0 6.0 0.00 0.00 0.00 52 1013.7
20260902200951 96 345 3.0 4.0 0.00 0.00 0.00 51 1014.0
20260902200447 96 346 2.0 2.0 0.00 0.00 0.00 50 1014.0
20260902195942 96 335 4.0 7.0 0.00 0.00 0.00 50 1013.9
20260902195437 95 309 6.0 8.0 0.00 0.00 0.00 51 1014.1
20260902194932 96 259 6.0 7.0 0.00 0.00 0.00 50 1014.2
20260902194431 96 253 3.0 4.0 0.00 0.00 0.00 49 1014.2
20260902193926 96 315 4.0 4.0 0.00 0.00 0.00 50 1014.2
20260902193423 95 321 2.0 3.0 0.00 0.00 0.00 52 1014.0
20260902192921 94 290 5.0 8.0 0.00 0.00 0.00 52 1013.9
20260902192420 95 255 8.0 9.0 0.00 0.00 0.00 50 1013.9
20260902191919 94 238 5.0 7.0 0.00 0.00 0.00 50 1014.0
20260902191415 95 264 9.0 10.0 0.00 0.00 0.00 50 1014.0
20260902190910 94 265 9.0 13.0 0.00 0.00 0.00 51 1014.0
20260902190405 95 208 9.0 11.0 0.00 0.00 0.00 53 1014.0
20260902185901 95 329 4.0 6.0 0.00 0.00 0.00 53 1014.1
20260902185356 95 275 6.0 7.0 0.00 0.00 0.00 51 1014.1
20260902184851 95 277 5.0 6.0 0.00 0.00 0.00 52 1014.2
20260902184347 95 273 3.0 4.0 0.00 0.00 0.00 55 1014.1
20260902183842 95 253 5.0 6.0 0.00 0.00 0.00 52 1014.1
20260902183338 95 348 4.0 6.0 0.00 0.00 0.00 53 1014.1
20260902182828 93 255 7.0 9.0 0.00 0.00 0.00 54 1014.2
20260902182325 93 252 8.0 11.0 0.00 0.00 0.00 55 1014.2
20260902181821 93 249 3.0 6.0 0.00 0.00 0.00 56 1014.2
20260902181316 93 334 7.0 9.0 0.00 0.00 0.00 56 1014.3
20260902180810 93 247 6.0 8.0 0.00 0.00 0.00 57 1014.5
20260902180306 93 256 3.0 6.0 0.00 0.00 0.00 58 1014.5
20260902175801 93 286 4.0 4.0 0.00 0.00 0.00 58 1014.5
20260902175256 92 261 5.0 7.0 0.00 0.00 0.00 58 1014.7
20260902174757 92 241 5.0 7.0 0.00 0.00 0.00 59 1014.6
20260902174254 92 243 3.0 4.0 0.00 0.00 0.00 59 1014.7
20260902173749 91 276 2.0 3.0 0.00 0.00 0.00 60 1014.7
20260902173248 91 305 5.0 7.0 0.00 0.00 0.00 60 1015.1
20260902172743 91 283 5.0 6.0 0.00 0.00 0.00 60 1015.0
20260902172243 91 344 2.0 2.0 0.00 0.00 0.00 61 1015.1
20260902171738 90 318 2.0 2.0 0.00 0.00 0.00 60 1015.2
20260902171233 89 256 5.0 6.0 0.00 0.00 0.00 62 1015.2
20260902170730 90 275 4.0 6.0 0.00 0.00 0.00 61 1015.3
20260902170225 89 262 6.0 8.0 0.00 0.00 0.00 62 1015.0
20260902165721 90 257 6.0 8.0 0.00 0.00 0.00 63 1014.9
20260902165214 90 326 2.0 3.0 0.00 0.00 0.00 63 1015.2
20260902164709 89 220 4.0 4.0 0.00 0.00 0.00 62 1015.0
20260902164208 90 278 4.0 4.0 0.00 0.00 0.00 63 1015.2
20260902163704 90 227 2.0 4.0 0.00 0.00 0.00 59 1015.1
20260902163203 88 336 3.0 3.0 0.00 0.00 0.00 63 1015.0
20260902162701 88 266 3.0 3.0 0.00 0.00 0.00 63 1015.0
20260902162156 88 251 5.0 7.0 0.00 0.00 0.00 64 1014.9
20260902161651 87 13 2.0 3.0 0.00 0.00 0.00 64 1015.0
20260902161147 87 340 4.0 6.0 0.00 0.00 0.00 67 1014.9
20260902160644 87 237 4.0 6.0 0.00 0.00 0.00 65 1014.9
20260902160138 87 282 5.0 6.0 0.00 0.00 0.00 65 1015.0
20260902155637 86 56 4.0 6.0 0.00 0.00 0.00 67 1014.9
20260902155135 86 200 4.0 7.0 0.00 0.00 0.00 66 1015.0
20260902154630 86 274 4.0 7.0 0.00 0.00 0.00 67 1014.8
20260902154126 86 177 5.0 6.0 0.00 0.00 0.00 67 1014.7
20260902153625 86 246 2.0 3.0 0.00 0.00 0.00 65 1014.9
20260902153120 86 239 4.0 4.0 0.00 0.00 0.00 69 1014.9
20260902152616 86 267 5.0 7.0 0.00 0.00 0.00 69 1014.9
20260902152111 85 299 2.0 3.0 0.00 0.00 0.00 69 1014.9
20260902151607 86 225 4.0 6.0 0.00 0.00 0.00 67 1014.9
20260902151107 85 319 4.0 4.0 0.00 0.00 0.00 70 1014.9
20260902150602 84 298 4.0 4.0 0.00 0.00 0.00 71 1014.9
20260902150058 83 277 5.0 6.0 0.00 0.00 0.00 72 1014.8
20260902145557 84 307 4.0 6.0 0.00 0.00 0.00 71 1014.9
20260902145057 84 333 3.0 4.0 0.00 0.00 0.00 71 1014.8
20260902144554 83 208 2.0 3.0 0.00 0.00 0.00 70 1014.9
20260902144054 83 253 2.0 4.0 0.00 0.00 0.00 70 1015.0
20260902143549 83 224 4.0 4.0 0.00 0.00 0.00 73 1014.9
20260902143045 82 254 4.0 6.0 0.00 0.00 0.00 72 1014.7
20260902142543 82 268 4.0 6.0 0.00 0.00 0.00 72 1014.8
20260902142036 83 213 3.0 4.0 0.00 0.00 0.00 71 1014.7
20260902141536 82 229 4.0 4.0 0.00 0.00 0.00 72 1014.8
20260902141032 82 224 6.0 7.0 0.00 0.00 0.00 72 1014.6
20260902140532 81 263 3.0 4.0 0.00 0.00 0.00 74 1014.7
20260902140027 80 210 6.0 8.0 0.00 0.00 0.00 76 1014.8
20260902135526 80 233 4.0 4.0 0.00 0.00 0.00 76 1014.8
20260902135021 81 239 3.0 3.0 0.00 0.00 0.00 75 1014.8
20260902134517 80 225 3.0 3.0 0.00 0.00 0.00 77 1015.1
20260902134017 80 35 2.0 2.0 0.00 0.00 0.00 77 1015.2
20260902133512 80 199 3.0 3.0 0.00 0.00 0.00 77 1015.1
20260902133012 79 321 1.0 1.0 0.00 0.00 0.00 78 1015.2
20260902132507 79 331 2.0 2.0 0.00 0.00 0.00 78 1015.3
20260902132002 79 211 4.0 4.0 0.00 0.00 0.00 77 1015.4
20260902131459 79 227 2.0 2.0 0.00 0.00 0.00 76 1015.3
20260902130958 79 339 3.0 3.0 0.00 0.00 0.00 76 1015.2
20260902130454 78 265 1.0 2.0 0.00 0.00 0.00 76 1015.5
20260902125949 78 319 1.0 1.0 0.00 0.00 0.00 76 1015.5
20260902125445 78 353 0.0 1.0 0.00 0.00 0.00 77 1015.4
20260902124941 77 270 2.0 2.0 0.00 0.00 0.00 78 1015.6
20260902124437 78 324 0.0 1.0 0.00 0.00 0.00 78 1015.7
20260902123932 78 320 2.0 3.0 0.00 0.00 0.00 77 1015.5
20260902123428 77 353 0.0 0.0 0.00 0.00 0.00 78 1015.7
20260902122926 77 5 2.0 2.0 0.00 0.00 0.00 80 1015.4
20260902122422 76 240 2.0 3.0 0.00 0.00 0.00 80 1015.5
20260902121918 76 1 1.0 1.0 0.00 0.00 0.00 81 1015.6
20260902121412 76 309 2.0 2.0 0.00 0.00 0.00 81 1015.5
20260902120907 76 340 0.0 1.0 0.00 0.00 0.00 82 1016.2
20260902120404 76 355 3.0 3.0 0.00 0.00 0.00 81 1016.2
20260902115903 76 3 3.0 3.0 0.00 0.00 0.00 80 1015.9
20260902115359 75 262 4.0 4.0 0.00 0.00 0.00 81 1015.5
20260902114856 75 340 2.0 3.0 0.00 0.00 0.00 83 1015.7
20260902114351 75 325 2.0 3.0 0.00 0.00 0.00 83 1015.6
20260902113845 75 15 1.0 1.0 0.00 0.00 0.00 83 1015.3
20260902113342 75 321 1.0 1.0 0.00 0.00 0.00 83 1015.3
20260902112840 74 336 4.0 7.0 0.00 0.00 0.00 84 1015.3
20260902112337 76 12 4.0 4.0 0.00 0.00 0.00 81 1015.0
20260902111833 76 291 3.0 4.0 0.00 0.00 0.00 80 1014.5
20260902111329 76 267 2.0 2.0 0.00 0.00 0.00 80 1014.6
20260902110824 76 211 3.0 3.0 0.00 0.00 0.00 80 1014.3
20260902110320 76 219 3.0 3.0 0.00 0.00 0.00 80 1014.4
20260902105820 76 278 2.0 2.0 0.00 0.00 0.00 80 1014.6
20260902105315 76 304 2.0 3.0 0.00 0.00 0.00 80 1014.5
20260902104810 76 286 1.0 2.0 0.00 0.00 0.00 80 1014.6
20260902104306 76 280 2.0 3.0 0.00 0.00 0.00 81 1014.4
20260902103800 76 303 2.0 2.0 0.00 0.00 0.00 81 1014.5
20260902103255 76 322 1.0 1.0 0.00 0.00 0.00 81 1014.5
20260902102750 76 282 2.0 2.0 0.00 0.00 0.00 81 1014.6
20260902102248 75 313 2.0 2.0 0.00 0.00 0.00 81 1014.8
20260902101743 75 311 2.0 2.0 0.00 0.00 0.00 81 1014.5
20260902101238 75 319 2.0 3.0 0.00 0.00 0.00 82 1014.5
20260902100737 75 235 3.0 3.0 0.00 0.00 0.00 82 1014.5
20260902100231 75 229 2.0 3.0 0.00 0.00 0.00 82 1014.5
20260902095726 75 298 2.0 2.0 0.00 0.00 0.00 82 1014.4
20260902095220 76 288 2.0 2.0 0.00 0.00 0.00 82 1014.5
20260902094715 76 227 3.0 3.0 0.00 0.00 0.00 82 1014.6
20260902094212 76 224 3.0 3.0 0.00 0.00 0.00 82 1014.6
20260902093710 76 281 2.0 2.0 0.00 0.00 0.00 81 1014.9
20260902093205 76 289 2.0 2.0 0.00 0.00 0.00 81 1014.7
20260902092659 76 211 4.0 6.0 0.00 0.00 0.00 81 1015.0
20260902092155 76 297 1.0 1.0 0.00 0.00 0.00 81 1015.1
20260902091649 76 328 2.0 2.0 0.00 0.00 0.00 81 1015.1
20260902091146 76 293 1.0 2.0 0.00 0.00 0.00 80 1015.0
20260902090641 77 332 1.0 1.0 0.00 0.00 0.00 80 1015.0
20260902090140 76 236 2.0 3.0 0.00 0.00 0.00 81 1015.0
20260902085636 76 232 2.0 2.0 0.00 0.00 0.00 81 1015.1
20260902085130 76 299 2.0 2.0 0.00 0.00 0.00 81 1014.9
20260902084627 76 279 2.0 2.0 0.00 0.00 0.00 81 1014.9
20260902084122 76 295 1.0 2.0 0.00 0.00 0.00 81 1014.8
20260902083617 76 294 2.0 2.0 0.00 0.00 0.00 82 1014.7
20260902083116 76 342 0.0 0.0 0.00 0.00 0.00 82 1014.7
20260902082612 76 282 2.0 3.0 0.00 0.00 0.00 82 1014.7
20260902082109 76 305 2.0 2.0 0.00 0.00 0.00 82 1014.7
20260902081605 76 346 1.0 1.0 0.00 0.00 0.00 82 1014.6
20260902081104 77 316 1.0 1.0 0.00 0.00 0.00 82 1014.6
20260902080559 77 290 2.0 2.0 0.00 0.00 0.00 81 1014.5
20260902080056 77 312 2.0 2.0 0.00 0.00 0.00 81 1014.2
20260902075555 77 321 1.0 1.0 0.00 0.00 0.00 81 1014.4
20260902075052 77 295 2.0 2.0 0.00 0.00 0.00 81 1014.4
20260902074547 77 287 1.0 1.0 0.00 0.00 0.00 82 1014.3
20260902074042 77 276 2.0 2.0 0.00 0.00 0.00 82 1014.3
20260902073537 77 294 2.0 2.0 0.00 0.00 0.00 82 1014.4
20260902073034 77 343 1.0 1.0 0.00 0.00 0.00 82 1014.4
20260902072529 77 322 1.0 1.0 0.00 0.00 0.00 82 1014.3
20260902072026 77 333 0.0 1.0 0.00 0.00 0.00 83 1014.2
20260902071525 77 331 0.0 0.0 0.00 0.00 0.00 83 1014.2
20260902071022 77 340 0.0 0.0 0.00 0.00 0.00 83 1014.2
20260902070517 77 326 0.0 1.0 0.00 0.00 0.00 83 1014.3
20260902070017 77 293 1.0 1.0 0.00 0.00 0.00 83 1014.3
20260902065511 77 319 1.0 1.0 0.00 0.00 0.00 84 1014.6
20260902065006 76 330 1.0 1.0 0.00 0.00 0.00 84 1014.4
20260902064502 77 338 2.0 2.0 0.00 0.00 0.00 84 1014.5
20260902063958 77 351 1.0 1.0 0.00 0.00 0.00 84 1014.3
20260902063457 77 327 1.0 1.0 0.00 0.00 0.00 84 1014.4
20260902062953 77 329 0.0 1.0 0.00 0.00 0.00 84 1014.6
20260902062445 77 333 1.0 1.0 0.00 0.00 0.00 83 1014.5
20260902061940 77 316 1.0 2.0 0.00 0.00 0.00 83 1014.7
20260902061435 78 295 2.0 2.0 0.00 0.00 0.00 83 1014.4
20260902060931 78 325 1.0 1.0 0.00 0.00 0.00 83 1014.9
20260902060427 78 325 1.0 1.0 0.00 0.00 0.00 83 1014.7
20260902055923 78 320 1.0 1.0 0.00 0.00 0.00 83 1014.6
20260902055419 78 322 1.0 1.0 0.00 0.00 0.00 83 1014.6
20260902054914 78 357 1.0 1.0 0.00 0.00 0.00 83 1014.6
20260902054409 78 335 1.0 1.0 0.00 0.00 0.00 83 1014.4
20260902053904 78 222 2.0 2.0 0.00 0.00 0.00 83 1014.5
20260902053400 78 305 1.0 1.0 0.00 0.00 0.00 83 1014.6
20260902052900 78 232 3.0 3.0 0.00 0.00 0.00 82 1014.6
20260902052355 78 315 1.0 1.0 0.00 0.00 0.00 82 1014.6
20260902051850 78 309 1.0 1.0 0.00 0.00 0.00 82 1014.7
20260902051349 79 344 1.0 1.0 0.00 0.00 0.00 82 1014.7
20260902050843 79 335 1.0 1.0 0.00 0.00 0.00 82 1014.9
20260902050342 79 291 2.0 2.0 0.00 0.00 0.00 82 1014.8
20260902045838 79 321 1.0 1.0 0.00 0.00 0.00 82 1014.9
20260902045334 79 319 1.0 1.0 0.00 0.00 0.00 82 1014.8
20260902044830 79 330 0.0 1.0 0.00 0.00 0.00 82 1014.7
20260902044325 79 325 0.0 1.0 0.00 0.00 0.00 83 1014.8
20260902043826 79 337 0.0 0.0 0.00 0.00 0.00 82 1014.6
20260902043321 79 339 0.0 1.0 0.00 0.00 0.00 82 1014.6
20260902042820 79 319 1.0 1.0 0.00 0.00 0.00 82 1014.8
20260902042315 79 341 1.0 2.0 0.00 0.00 0.00 82 1014.8
20260902041810 80 342 1.0 2.0 0.00 0.00 0.00 81 1014.7
20260902041310 80 305 1.0 2.0 0.00 0.00 0.00 81 1014.7
20260902040809 80 314 2.0 3.0 0.00 0.00 0.00 81 1014.7
20260902040305 80 303 1.0 1.0 0.00 0.00 0.00 80 1014.6
20260902035803 80 343 2.0 2.0 0.00 0.00 0.00 79 1014.7
20260902035259 81 268 3.0 4.0 0.00 0.00 0.00 79 1014.6
20260902034757 81 241 2.0 3.0 0.00 0.00 0.00 79 1014.7
20260902034253 81 233 4.0 4.0 0.00 0.00 0.00 78 1014.8
20260902033750 81 325 2.0 3.0 0.00 0.00 0.00 78 1014.7
20260902033246 81 275 2.0 2.0 0.00 0.00 0.00 78 1014.5
20260902032744 82 311 1.0 2.0 0.00 0.00 0.00 78 1014.6
20260902032240 82 303 1.0 2.0 0.00 0.00 0.00 77 1014.5
20260902031740 82 263 3.0 3.0 0.00 0.00 0.00 77 1014.6
20260902031235 82 308 2.0 3.0 0.00 0.00 0.00 77 1014.5
20260902030731 82 304 2.0 2.0 0.00 0.00 0.00 77 1014.5
20260902030231 82 281 1.0 1.0 0.00 0.00 0.00 77 1014.5
20260902025730 82 327 2.0 2.0 0.00 0.00 0.00 77 1014.5
20260902025225 82 312 1.0 2.0 0.00 0.00 0.00 77 1014.3
20260902024720 82 316 0.0 1.0 0.00 0.00 0.00 77 1014.6
20260902024216 82 329 1.0 1.0 0.00 0.00 0.00 77 1014.5
20260902023712 82 315 2.0 2.0 0.00 0.00 0.00 77 1014.5
20260902023207 82 120 2.0 2.0 0.00 0.00 0.00 77 1014.4
20260902022701 82 316 2.0 2.0 0.00 0.00 0.00 77 1014.4
20260902022156 82 321 1.0 2.0 0.00 0.00 0.00 77 1014.4
20260902021652 82 341 1.0 2.0 0.00 0.00 0.00 78 1014.4
20260902021151 83 325 1.0 1.0 0.00 0.00 0.00 78 1014.5
20260902020648 83 300 1.0 2.0 0.00 0.00 0.00 77 1014.6
20260902020143 83 308 1.0 2.0 0.00 0.00 0.00 78 1014.4
20260902015639 83 229 2.0 2.0 0.00 0.00 0.00 78 1014.5
20260902015135 84 325 1.0 1.0 0.00 0.00 0.00 78 1014.3
20260902014631 84 288 2.0 2.0 0.00 0.00 0.00 77 1014.3
20260902014126 84 349 1.0 1.0 0.00 0.00 0.00 77 1014.4
20260902013625 84 321 1.0 1.0 0.00 0.00 0.00 77 1014.2
20260902013121 84 338 0.0 1.0 0.00 0.00 0.00 77 1014.3
20260902012616 85 275 2.0 2.0 0.00 0.00 0.00 76 1014.1
20260902012112 85 338 2.0 2.0 0.00 0.00 0.00 76 1014.2